Location: Alladorf
(49.9620°N, 11.3790°E)
Time: 20:01:34
(UTC+00:00)

USA 308 - Pass Details

Date: 29 November 2020
Orbit: 567 x 580 km, 54.0° (Epoch: 22 January)

Event Time Altitude Azimuth Distance (km) Brightness Sun altitude
Exits shadow 05:13:17 24° 303° (WNW) 1,196 4.0 -14.7°
Maximum altitude 05:15:38 56° 13° (NNE) 687 3.2 -14.4°
Drops below altitude 10° 05:19:52 10° 92° (E) 1,887 6.8 -13.7°
Sets 05:22:10 0° 97° (E) 2,787 8.2 -13.4°
